Denison, IA

4:05 PM CST on February 06, 2016 (GMT -0600)
Denison Municipal

Weather History for KDNS - July, 2013

Change the Weather History Date:

Friday, July 19, 2013

  Actual Average (KOMA) Record (KOMA)
Temperature  
Mean Temperature 80 °F 77 °F  
Max Temperature 91 °F 88 °F 110 °F (1934)
Min Temperature 66 °F 67 °F 51 °F (1873)
Degree Days  
Heating Degree Days 0 0  
Month to date heating degree days 0  
Since 1 June heating degree days 17  
Since 1 July heating degree days 0  
Cooling Degree Days 14 12  
Month to date cooling degree days 224  
Year to date cooling degree days 536  
Since 1 June cooling degree days 454  
Growing Degree Days 30 (Base 50)    
Moisture  
Dew Point 64 °F    
Average Humidity 59    
Maximum Humidity 88    
Minimum Humidity 33    
Precipitation  
Precipitation 0.00 in 0.12 in 2.97 in (1890)
Month to date precipitation 2.36  
Year to date precipitation 17.82  
Snow  
Snow 0.00 in 0.00 in - ()
Month to date snowfall 0.0  
Since 1 July snowfall 0.0  
Snow Depth -    
Sea Level Pressure  
Sea Level Pressure 29.91 in    
Wind  
Wind Speed 6 mph (WNW)    
Max Wind Speed 14 mph    
Max Gust Speed 16 mph    
Visibility 10 miles    
Events Rain    
T = Trace of Precipitation, MM = Missing Value Source: NWS Daily Summary

Daily Weather History Graph

Daily Weather History Graph

Search for Another Location

Airport or City:

Trip Planner

Search our weather history database for the weather conditions in past years. The results will help you decide how hot, cold, wet, or windy it might be!

Date:

Astronomy

Jul. 19, 2013 Rise Set
Actual Time 6:02 AM CDT 8:52 PM CDT
Civil Twilight 5:30 AM CDT 9:25 PM CDT
Nautical Twilight 4:48 AM CDT 10:06 PM CDT
Astronomical Twilight 4:00 AM CDT 10:54 PM CDT
Moon 5:55 PM CDT (7/19) 2:45 AM CDT (7/19)
Length of Visible Light 15h 55m
Length of Day
14h 49m
Waxing Gibbous, 87% of the Moon is Illuminated
Jul 19
Waxing Gibbous
Jul 22
Full
Jul 29
Last Quarter
Aug 6
New
Aug 14
First Quarter

Hourly Weather History & Observations

Time (CDT) Temp. Heat Index Dew Point Humidity Pressure Visibility Wind Dir Wind Speed Gust Speed Precip Events Conditions
12:15 AM 78.8 °F - 68.0 °F 69% 29.93 in 10.0 mi SSW 9.2 mph - N/A   Clear
12:35 AM 78.8 °F - 68.0 °F 69% 29.93 in 10.0 mi SSW 6.9 mph - N/A   Clear
12:55 AM 78.8 °F - 68.0 °F 69% 29.93 in 10.0 mi SSW 6.9 mph - N/A   Clear
1:15 AM 78.8 °F - 66.2 °F 65% 29.92 in 10.0 mi SSW 8.1 mph - N/A   Clear
1:35 AM 78.8 °F - 66.2 °F 65% 29.92 in 10.0 mi SSW 6.9 mph - N/A   Clear
1:55 AM 78.8 °F - 66.2 °F 65% 29.92 in 10.0 mi Variable 6.9 mph - N/A   Clear
2:15 AM 78.8 °F - 66.2 °F 65% 29.92 in 10.0 mi SW 8.1 mph - N/A   Clear
2:35 AM 78.8 °F - 66.2 °F 65% 29.91 in 10.0 mi SSW 5.8 mph - N/A   Clear
2:55 AM 77.0 °F - 66.2 °F 69% 29.91 in 10.0 mi SSW 5.8 mph - N/A   Clear
3:15 AM 77.0 °F - 66.2 °F 69% 29.90 in 10.0 mi SW 5.8 mph - N/A   Clear
3:35 AM 77.0 °F - 66.2 °F 69% 29.90 in 10.0 mi SW 4.6 mph - N/A   Clear
3:55 AM 75.2 °F - 64.4 °F 69% 29.89 in 10.0 mi SSW 4.6 mph - N/A   Clear
4:15 AM 77.0 °F - 64.4 °F 65% 29.88 in 10.0 mi Variable 5.8 mph - N/A   Clear
4:35 AM 77.0 °F - 64.4 °F 65% 29.89 in 10.0 mi SW 5.8 mph - N/A   Clear
4:55 AM 77.0 °F - 64.4 °F 65% 29.88 in 10.0 mi SW 5.8 mph - N/A   Clear
5:15 AM 77.0 °F - 64.4 °F 65% 29.88 in 10.0 mi SW 6.9 mph - N/A   Clear
5:35 AM 77.0 °F - 64.4 °F 65% 29.89 in 10.0 mi SW 5.8 mph - N/A   Clear
5:55 AM 75.2 °F - 64.4 °F 69% 29.89 in 10.0 mi SW 6.9 mph - N/A   Clear
6:15 AM 75.2 °F - 64.4 °F 69% 29.89 in 10.0 mi SW 5.8 mph - N/A   Clear
6:35 AM 77.0 °F - 64.4 °F 65% 29.89 in 10.0 mi SW 6.9 mph - N/A   Partly Cloudy
6:55 AM 77.0 °F - 66.2 °F 69% 29.89 in 10.0 mi SW 5.8 mph - N/A   Mostly Cloudy
7:15 AM 75.2 °F - 66.2 °F 73% 29.90 in 10.0 mi WSW 4.6 mph - N/A   Overcast
7:35 AM 75.2 °F - 66.2 °F 73% 29.91 in 10.0 mi WSW 4.6 mph - N/A   Overcast
7:55 AM 77.0 °F - 68.0 °F 74% 29.92 in 10.0 mi West 5.8 mph - N/A   Scattered Clouds
8:15 AM 78.8 °F - 68.0 °F 69% 29.91 in 10.0 mi SW 6.9 mph - N/A   Clear
8:35 AM 77.0 °F - 68.0 °F 74% 29.92 in 7.0 mi WSW 5.8 mph - N/A Rain Light Rain
8:55 AM 75.2 °F - 69.8 °F 83% 29.93 in 9.0 mi SSW 4.6 mph - N/A   Clear
9:15 AM 77.0 °F - 69.8 °F 78% 29.93 in 10.0 mi WSW 4.6 mph - N/A   Clear
9:35 AM 77.0 °F - 69.8 °F 78% 29.93 in 10.0 mi West 6.9 mph - N/A   Partly Cloudy
9:55 AM 80.6 °F 84.6 °F 71.6 °F 74% 29.92 in 10.0 mi Variable 4.6 mph - N/A   Clear
10:15 AM 82.4 °F 86.3 °F 69.8 °F 66% 29.92 in 10.0 mi West 8.1 mph - N/A   Clear
10:35 AM 84.2 °F 87.3 °F 68.0 °F 58% 29.92 in 10.0 mi WNW 6.9 mph - N/A   Clear
10:55 AM 84.2 °F 87.3 °F 68.0 °F 58% 29.92 in 10.0 mi NW 6.9 mph - N/A   Clear
11:15 AM 84.2 °F 87.3 °F 68.0 °F 58% 29.92 in 10.0 mi NW 4.6 mph - N/A   Clear
11:35 AM 84.2 °F 87.3 °F 68.0 °F 58% 29.93 in 10.0 mi WNW 4.6 mph - N/A   Light Drizzle
11:55 AM 86.0 °F 88.2 °F 66.2 °F 51% 29.92 in 10.0 mi Variable 3.5 mph - N/A   Clear
12:15 PM 86.0 °F 89.4 °F 68.0 °F 55% 29.92 in 10.0 mi Calm Calm - N/A   Clear
12:35 PM 87.8 °F 90.4 °F 66.2 °F 49% 29.92 in 10.0 mi Calm Calm - N/A   Clear
12:55 PM 87.8 °F 90.4 °F 66.2 °F 49% 29.92 in 10.0 mi Variable 4.6 mph - N/A   Partly Cloudy
1:15 PM 89.6 °F 91.1 °F 64.4 °F 43% 29.91 in 10.0 mi Calm Calm - N/A   Clear
1:35 PM 89.6 °F 91.1 °F 64.4 °F 43% 29.91 in 10.0 mi WNW 6.9 mph - N/A   Scattered Clouds
1:55 PM 89.6 °F 88.1 °F 57.2 °F 33% 29.91 in 10.0 mi North 3.5 mph - N/A   Partly Cloudy
2:15 PM 91.4 °F 91.4 °F 60.8 °F 36% 29.91 in 10.0 mi NNW 8.1 mph - N/A   Clear
2:35 PM 91.4 °F 92.1 °F 62.6 °F 38% 29.91 in 10.0 mi NW 8.1 mph - N/A   Clear
2:55 PM 91.4 °F 93.2 °F 64.4 °F 41% 29.91 in 10.0 mi NW 10.4 mph 16.1 mph N/A   Partly Cloudy
3:15 PM 91.4 °F 93.2 °F 64.4 °F 41% 29.91 in 10.0 mi NNW 10.4 mph - N/A   Partly Cloudy
3:35 PM 91.4 °F 90.7 °F 59.0 °F 34% 29.91 in 10.0 mi NNW 12.7 mph - N/A   Partly Cloudy
3:55 PM 89.6 °F 89.5 °F 60.8 °F 38% 29.90 in 10.0 mi NNW 13.8 mph - N/A   Clear
4:15 PM 89.6 °F 89.5 °F 60.8 °F 38% 29.90 in 10.0 mi NNW 11.5 mph - N/A   Clear
4:35 PM 89.6 °F 89.5 °F 60.8 °F 38% 29.90 in 10.0 mi NNW 9.2 mph - N/A   Clear
4:55 PM 89.6 °F 89.5 °F 60.8 °F 38% 29.90 in 10.0 mi NW 9.2 mph - N/A   Clear
5:15 PM 89.6 °F 89.5 °F 60.8 °F 38% 29.90 in 10.0 mi NNW 10.4 mph - N/A   Clear
5:35 PM 87.8 °F 87.6 °F 60.8 °F 40% 29.90 in 10.0 mi NNW 11.5 mph - N/A   Clear
5:55 PM 87.8 °F 87.6 °F 60.8 °F 40% 29.90 in 10.0 mi NNW 8.1 mph - N/A   Clear
6:15 PM 86.0 °F 86.1 °F 60.8 °F 43% 29.89 in 10.0 mi North 9.2 mph 16.1 mph N/A   Clear
6:35 PM 86.0 °F 86.1 °F 60.8 °F 43% 29.89 in 10.0 mi North 9.2 mph - N/A   Clear
6:55 PM 84.2 °F 83.8 °F 59.0 °F 42% 29.89 in 10.0 mi North 9.2 mph - N/A   Clear
7:15 PM 84.2 °F 83.5 °F 57.2 °F 40% 29.90 in 10.0 mi NNW 6.9 mph - N/A   Clear
7:35 PM 82.4 °F 82.0 °F 57.2 °F 42% 29.90 in 10.0 mi North 4.6 mph - N/A   Clear
7:55 PM 82.4 °F 82.5 °F 59.0 °F 45% 29.90 in 9.0 mi North 4.6 mph - N/A   Clear
8:15 PM 80.6 °F 81.5 °F 60.8 °F 51% 29.90 in 9.0 mi North 4.6 mph - N/A   Clear
8:35 PM 78.8 °F - 62.6 °F 57% 29.90 in 10.0 mi Calm Calm - N/A   Clear
8:55 PM 78.8 °F - 60.8 °F 54% 29.91 in 10.0 mi North 3.5 mph - N/A   Clear
9:15 PM 75.2 °F - 62.6 °F 65% 29.91 in 10.0 mi North 3.5 mph - N/A   Clear
9:35 PM 75.2 °F - 62.6 °F 65% 29.91 in 10.0 mi NNE 5.8 mph - N/A   Clear
9:55 PM 75.2 °F - 62.6 °F 65% 29.92 in 10.0 mi NNE 4.6 mph - N/A   Clear
10:15 PM 73.4 °F - 62.6 °F 69% 29.93 in 10.0 mi Calm Calm - N/A   Clear
10:35 PM 69.8 °F - 62.6 °F 78% 29.93 in 10.0 mi Calm Calm - N/A   Clear
10:55 PM 68.0 °F - 62.6 °F 83% 29.94 in 10.0 mi Calm Calm - N/A   Clear
11:15 PM 68.0 °F - 62.6 °F 83% 29.94 in 10.0 mi Calm Calm - N/A   Clear
11:35 PM 68.0 °F - 64.4 °F 88% 29.94 in 10.0 mi NE 4.6 mph - N/A   Clear
11:55 PM 66.2 °F - 62.6 °F 88% 29.95 in 10.0 mi Calm Calm - N/A   Clear